This is the latest recevied weather packets stored in our database for station/object KQ4LLM. If no packets are shown the sender has not sent any weather packets the latest 10 day(s).
| Time | Temp. | Humidity | Pressure | Rain* | Wind** | Luminosity | Snow |
|---|---|---|---|---|---|---|---|
| 1778016809 | 24.44° C | 42% | - | 0 mm | - | - | - |
| 1778016505 | 24.44° C | 44% | - | 0 mm | - | - | - |
| 1778016202 | 24.44° C | 43% | - | 0 mm | - | - | - |
| 1778015898 | 24.44° C | 40% | - | 0 mm | - | - | - |
| 1778015596 | 25° C | 39% | - | 0 mm | - | - | - |
| 1778015292 | 25° C | 42% | - | 0 mm | - | - | - |
| 1778014989 | 25.56° C | 40% | - | 0 mm | - | - | - |
| 1778014686 | 25.56° C | 42% | - | 0 mm | - | - | - |
| 1778014385 | 25° C | 40% | - | 0 mm | - | - | - |
| 1778014081 | 25° C | 40% | - | 0 mm | - | - | - |
| 1778013779 | 25° C | 40% | - | 0 mm | - | - | - |
| 1778013476 | 25.56° C | 43% | - | 0 mm | - | - | - |
| 1778013173 | 25.56° C | 40% | - | 0 mm | - | - | - |
| 1778012868 | 25.56° C | 39% | - | 0 mm | - | - | - |
| 1778012565 | 25.56° C | 42% | - | 0 mm | - | - | - |
| 1778012261 | 25.56° C | 41% | - | 0 mm | - | - | - |
| 1778011959 | 26.11° C | 39% | - | 0 mm | - | - | - |
| 1778011657 | 26.11° C | 41% | - | 0 mm | - | - | - |
| 1778011354 | 26.67° C | 40% | - | 0 mm | - | - | - |
| 1778011049 | 26.11° C | 39% | - | 0 mm | - | - | - |
| 1778010747 | 25.56° C | 41% | - | 0 mm | - | - | - |
| 1778010444 | 25.56° C | 39% | - | 0 mm | - | - | - |
| 1778010141 | 26.11° C | 39% | - | 0 mm | - | - | - |
| 1778009837 | 26.67° C | 38% | - | 0 mm | - | - | - |
| 1778009534 | 26.11° C | 38% | - | 0 mm | - | - | - |
* Rain latest hour (hover to see other rain measurements)
** Current wind speed in m/s (hover to see current wind gust speed)